Weather in Bogorodskoye

Russia / Republic of Tatarstan     55°44′27″N   49°23′01″E
В апреле 2022 года жителям России запретили посещать сайт meteo.paraplan.net по решению Генеральной прокуратуры. Аудитория сайта уменьшилась в 10 раз. Владельцы сайта не видят смысла в поддержке погодного сервера в таких условиях. Сайт будет закрыт в октябре.
temp.,
°C
wind,
m/s
gust,
m/s
humid.,
%
clouds,
%
prec.,
mm/h
press.,
hPa
HPBL,
m
29 september, thu
thu2900:00+4ese91795100 1.8 1012490
03:00+5ese81596100 2.8 1011477
06:00+7ese71397100 0.9 1010463
09:00+8ese61295100 1.4 1010510
12:00+9ese61197100 3.3 1011470
15:00+8ese51096100 3.6 1012401
18:00+8ese5996100 0.1 1014351
21:00+7e4795100 0.1 1016274
30 september, fri
fri3000:00+7e3595100 0.1 1017219
03:00+7ene3494100 0.1 1019207
06:00+6e3594100 0.0 1021216
09:00+8e3388100 0.0 1022286
12:00+9e3382100 0.0 1023402
15:00+10e3479100 0.0 1024462
18:00+9ese368867 0.0 1025223
21:00+7ese369244 0.0 1025148
1 october, sat
sat100:00+7ese3593100 0.0 102585
03:00+7ese3595100 0.0 102589
06:00+7se3695100 0.0 1024137
09:00+11sse56765 0.0 1024457
12:00+14sse566663 0.0 1023750
15:00+14s566561 0.0 1022743
18:00+10sse3884100 0.0 1021170
21:00+11sse41080100 0.0 1020276
2 october, sun
sun200:00+11sse51184100 0.2 1018330
03:00+11sse61389100 1.9 1017365
06:00+11s6138971 0.0 1016388
09:00+13s71385100 0.0 1015448
12:00+15s71478100 0.0 1014618
15:00+16s71378100 0.1 1012710
18:00+15s61487100 2.0 1011568
21:00+14s489880 11.8 1011239
3 october, mon
mon300:00+13ssw3699100 2.9 1011187
03:00+12wnw239729 2.9 101256
06:00+13s51181100 0.1 1014317
09:00+14s51088100 0.6 1015374
12:00+16s5977100 0.0 1016439
15:00+19s5106620 0.0 1016757
18:00+16s5136696 0.0 1018291
21:00+14s51464100 0.0 1019345